Regional Weather Roundup
Issued by NWS

Home | Current Version | Previous Version | Text Only | Print | Product List | Glossary On
Versions: 1 2 3 4 5 6 7 8 9 10 11 12 13 14 15 16 17 18 19 20 21 22 23 24 25 26 27 28 29 30 31 32 33 34 35 36 37 38 39 40 41 42 43 44 45 46 47 48 49 50
000
ASUS45 KTFX 201619
RWRMT
MONTANA HOURLY WEATHER ROUNDUP
NATIONAL WEATHER SERVICE GREAT FALLS MT
1019 AM MDT SAT SEP 20 2014

NOTE: "FAIR" INDICATES FEW OR NO CLOUDS BELOW 12000 FEET WITH NO
SIGNIFICANT WEATHER AND/OR OBSTRUCTIONS TO VISIBILITY.

* THESE STATIONS ARE NOT UNDER NWS QUALITY CONTROL. THEY DO NOT
   REPORT WEATHER SUCH AS PRECIPITATION OR FOG.

MTZ001>007-043-201700-
WEST OF THE DIVIDE
CITY           SKY/WX    TMP DP  RH WIND       PRES   REMARKS
KALISPELL      SUNNY     55  48  77 CALM      30.25R
MISSOULA       SUNNY     54  45  72 CALM      30.29S
BUTTE          SUNNY     50  39  66 CALM      30.34S
MULLAN PASS    SUNNY     57  45  64 VRB3      30.32R
* ESSEX        N/A       52  45  77 SE2        N/A
* LINCOLN      N/A       49  40  71 NE2        N/A
* LOOKOUT PASS N/A       52  46  80 SE4        N/A
* POLSON       N/A       57  50  78 SW1        N/A
* RONAN APT    SUNNY     63  48  58 N/A        N/A
* SEELEY LAKE  N/A       51  43  74 NE2        N/A
* THOMP F APT  SUNNY     61  41  48 N/A        N/A
$$

MTZ008-052>055-201700-
SOUTHWEST MONTANA
CITY           SKY/WX    TMP DP  RH WIND       PRES   REMARKS
BOZEMAN        SUNNY     55  46  72 CALM      30.30S
DILLON         SUNNY     54  41  62 SW6       30.31R
W YELLOWSTONE  SUNNY     50  41  71 CALM      30.38R
* THREE FORKS  SUNNY     55  37  51 N/A        N/A
* BOULDER HILL N/A       57  40  53 E1         N/A
* MONIDA PASS  N/A       53  42  66 VRB2       N/A
* RAYNOLDS PAS N/A       49  49 100 N4         N/A
* WHITEHALL    N/A       53  43  69 S3         N/A
* WISE RIVER   N/A       44  39  83 SW2        N/A
$$

MTZ009>010-012-014-046-048-049-054-201700-
EAST SLOPES AND CENTRAL MONTANA
CITY           SKY/WX    TMP DP  RH WIND       PRES   REMARKS
CUT BANK       PTCLDY    57  43  60 S5        30.26R
GREAT FALLS    SUNNY     63  45  52 E5        30.25R
HELENA         SUNNY     57  45  64 N3        30.27S
MALMSTROM AFB  SUNNY     59  43  56 S3        30.27R
* CONRAD       PTCLDY    57  46  67 N/A        N/A
* EAST GLACIER N/A       53  43  69 S6         N/A
* MONARCH      N/A       55  38  53 NW2        N/A
* PENDROY      N/A       58  46  65 SE8        N/A
* ROGERS PASS  N/A       54  42  64 SE9G14     N/A
* SAINT MARY   N/A       55  45  69 NW4G9      N/A
* SWEET GRASS  N/A       56  42  60 NW3        N/A
* WHITE SULPH  N/A       57  44  62 VRB1       N/A
$$

MTZ011-013-016-021-035-040-045-047-050-051-201700-
NORTH CENTRAL MONTANA
CITY           SKY/WX    TMP DP  RH WIND       PRES   REMARKS
HAVRE          PTCLDY    59  46  62 W7        30.22R
LEWISTOWN      PTCLDY    61  43  52 W7        30.27R
* CHINOOK      PTCLDY    61  48  62 W9        30.21R
* FORT BENTON  SUNNY     61  45  56 CALM      30.25R
* CHESTER      N/A       64  41  43 NE1        N/A
* GEYSER       N/A       61  45  56 W9         N/A
* JUDITH GAP   N/A       58  43  58 N13        N/A
* LOMA         N/A       58  44  60 W4         N/A
$$

MTZ017>020-022>027-061-062-201700-
NORTHEAST MONTANA
CITY           SKY/WX    TMP DP  RH WIND       PRES   REMARKS
GLASGOW        PTSUNNY   61  48  62 W13       30.12R
JORDAN         SUNNY     63  46  54 W9        30.17R
SIDNEY         SUNNY     64  46  52 W15G21    30.07R
WOLF POINT     PTCLDY    63  50  63 W15       30.09R
* BEAVER HILL  N/A       61  46  58 NW14G20    N/A
* CIRCLE       N/A       61  49  65 W10        N/A
* LINDSAY DVD  N/A       61  46  58 NW12G18    N/A
$$

MTZ028>042-056>058-201700-
SOUTHCENTRAL AND SOUTHEAST MONTANA
CITY           SKY/WX    TMP DP  RH WIND       PRES   REMARKS
BAKER          SUNNY     61  46  58 NW20G33   30.12R
BILLINGS       SUNNY     66  41  40 NW9       30.25R
LIVINGSTON     PTCLDY    59  43  56 W5        30.29R
MILES CITY     SUNNY     64  45  50 NW23      30.16R
* LAUREL APT   PTCLDY    63  45  52 N/A        N/A
* ROUNDUP APT  SUNNY     66  43  43 W11G17     N/A
* ALZADA       N/A       67  43  42 W18G23     N/A
* HYSHAM       N/A       61  42  50 W8         N/A
* LAME DEER    N/A       60  44  56 W8G14      N/A
* REED POINT   N/A       62  43  50 W6         N/A
$$

REGIONAL REPORTS...DAKOTAS
CITY           SKY/WX    TMP DP  RH WIND       PRES   REMARKS
WILLISTON      SUNNY     64  46  52 NW25G30   30.00R
DICKINSON      SUNNY     63  48  58 NW17      30.00R
BEACH          N/A       64  46  52 NW17G23   30.07R
CROSBY         SUNNY     63  48  58 NW22G33   29.98R
TIOGA          SUNNY     63  50  63 NW23G32   30.00R
WATFORD CITY   SUNNY     63  46  54 NW14G24   29.99R
BISMARCK       SUNNY     70  54  57 NW13      29.88R
GRAND FORKS    PTSUNNY   63  55  75 S10       29.76F
FARGO          PTCLDY    64  55  73 S8        29.81F
BUFFALO SD     SUNNY     68  43  40 NW29G41   30.02R
RAPID CITY     SUNNY     73  45  37 NW22      30.11R
$$

REGIONAL REPORTS...WYOMING/IDAHO/WASHINGTON
CITY           SKY/WX    TMP DP  RH WIND       PRES   REMARKS
GILLETTE       SUNNY     64  45  50 NW13      30.23R
SHERIDAN       SUNNY     66  45  47 NW18      30.24R
CODY           SUNNY    N/A N/A N/A N/A        N/A
YELLOWSTONE LA SUNNY     50  43  77 CALM      30.44R
SALMON         SUNNY     57  43  60 CALM      30.27S
MULLAN PASS    SUNNY     57  45  64 VRB3      30.32S
SAND POINT     SUNNY     57  50  78 CALM      30.22R
SPOKANE        SUNNY     61  48  62 NE8       30.19S
$$

REGIONAL REPORTS...ALBERTA
CITY           SKY/WX    TMP DP  RH WIND       PRES   REMARKS
LETHBRIDGE     PTSUNNY   59  43  56 S6        30.24R
MEDICINE HAT   PTSUNNY   61  43  52 W6        30.21R
EDMONTON       PTSUNNY   55  37  51 W15G21    30.14R
WATERTON GATE  N/A       61  43  52 E1         N/A
CARDSTON       N/A       59  39  48 S6         N/A
MILK RIVER     N/A       57  43  60 W3         N/A
$$

REGIONAL REPORTS...SASKATCHEWAN
CITY           SKY/WX    TMP DP  RH WIND       PRES   REMARKS
SWIFT CURRENT  SUNNY     55  43  64 NW22      30.09R
REGINA         SUNNY     59  48  67 NW20G26   29.95S
VAL MARIE      N/A       61  43  52 NW17G23    N/A
ASSINIBOIA     N/A       59  43  56 NW23G32    N/A
CORONACH       N/A       59  46  62 NW26G32    N/A

$$




USA.gov is the U.S. government's official web portal to all federal, state and local government web resources and services.